| time (UTC) | temp F | wind direction | speed MPH | gust MPH | rain 1hr in | rain 24hr in | rain mn in | humidity % | barometer mb |
| 20260506211544 | 74 | 347 | 1.0 | 11.0 | 0.00 | 0.00 | 0.00 | 23 | 1020.6 |
| 20260506210043 | 74 | 0 | 3.0 | 11.0 | 0.00 | 0.00 | 0.00 | 21 | 1020.8 |
| 20260506204541 | 74 | 0 | 2.0 | 9.0 | 0.00 | 0.00 | 0.00 | 25 | 1020.9 |
| 20260506203051 | 73 | 239 | 2.0 | 10.0 | 0.00 | 0.00 | 0.00 | 27 | 1020.9 |
| 20260506201550 | 73 | 280 | 2.0 | 10.0 | 0.00 | 0.00 | 0.00 | 30 | 1021.0 |
| 20260506200045 | 72 | 360 | 3.0 | 9.0 | 0.00 | 0.00 | 0.00 | 28 | 1021.0 |
| 20260506194557 | 73 | 289 | 2.0 | 8.0 | 0.00 | 0.00 | 0.00 | 30 | 1021.2 |
| 20260506193043 | 70 | 281 | 4.0 | 10.0 | 0.00 | 0.00 | 0.00 | 33 | 1021.4 |
| 20260506191539 | 70 | 312 | 4.0 | 11.0 | 0.00 | 0.00 | 0.00 | 34 | 1021.5 |
| 20260506190045 | 69 | 267 | 3.0 | 8.0 | 0.00 | 0.00 | 0.00 | 38 | 1021.7 |
| 20260506184544 | 68 | 56 | 3.0 | 8.0 | 0.00 | 0.00 | 0.00 | 40 | 1021.8 |
| 20260506183039 | 67 | 17 | 2.0 | 7.0 | 0.00 | 0.00 | 0.00 | 47 | 1021.9 |
| 20260506181545 | 65 | 305 | 1.0 | 7.0 | 0.00 | 0.00 | 0.00 | 49 | 1021.9 |
| 20260506180050 | 65 | 0 | 1.0 | 5.0 | 0.00 | 0.00 | 0.00 | 49 | 1022.0 |
| 20260506174545 | 65 | 323 | 1.0 | 5.0 | 0.00 | 0.00 | 0.00 | 51 | 1021.9 |
| 20260506173045 | 64 | 313 | 0.0 | 4.0 | 0.00 | 0.00 | 0.00 | 54 | 1021.8 |
| 20260506171551 | 62 | 0 | 0.0 | 3.0 | 0.00 | 0.00 | 0.00 | 59 | 1021.6 |
| 20260506170040 | 60 | 0 | 2.0 | 4.0 | 0.00 | 0.00 | 0.00 | 63 | 1021.7 |
| 20260506164539 | 59 | 149 | 1.0 | 7.0 | 0.00 | 0.00 | 0.00 | 62 | 1021.7 |
| 20260506163049 | 58 | 0 | 0.0 | 3.0 | 0.00 | 0.00 | 0.00 | 63 | 1021.6 |
| 20260506161546 | 56 | 0 | 0.0 | 0.0 | 0.00 | 0.00 | 0.00 | 66 | 1021.6 |
| 20260506160043 | 55 | 0 | 0.0 | 0.0 | 0.00 | 0.00 | 0.00 | 67 | 1021.7 |
| 20260506154544 | 54 | 0 | 0.0 | 0.0 | 0.00 | 0.00 | 0.00 | 71 | 1021.6 |
| 20260506153047 | 52 | 0 | 0.0 | 0.0 | 0.00 | 0.00 | 0.00 | 75 | 1021.6 |
| 20260506151546 | 50 | 0 | 0.0 | 4.0 | 0.00 | 0.00 | 0.00 | 78 | 1021.6 |
| 20260506150039 | 49 | 0 | 0.0 | 0.0 | 0.00 | 0.00 | 0.00 | 80 | 1021.5 |
| 20260506144551 | 47 | 0 | 0.0 | 2.0 | 0.00 | 0.00 | 0.00 | 81 | 1021.5 |
| 20260506143039 | 46 | 0 | 1.0 | 4.0 | 0.00 | 0.00 | 0.00 | 82 | 1021.3 |
| 20260506141540 | 46 | 0 | 0.0 | 3.0 | 0.00 | 0.00 | 0.00 | 83 | 1021.1 |
| 20260506140057 | 44 | 0 | 0.0 | 0.0 | 0.00 | 0.00 | 0.00 | 86 | 1020.8 |
| 20260506134546 | 43 | 0 | 0.0 | 0.0 | 0.00 | 0.00 | 0.00 | 88 | 1020.7 |
| 20260506133046 | 42 | 0 | 0.0 | 0.0 | 0.00 | 0.00 | 0.00 | 88 | 1020.5 |
| 20260506131548 | 42 | 0 | 0.0 | 0.0 | 0.00 | 0.00 | 0.00 | 88 | 1020.4 |
| 20260506130046 | 42 | 0 | 0.0 | 0.0 | 0.00 | 0.00 | 0.00 | 89 | 1020.0 |
| 20260506124546 | 42 | 0 | 0.0 | 0.0 | 0.00 | 0.00 | 0.00 | 88 | 1019.7 |
| 20260506123046 | 42 | 0 | 0.0 | 0.0 | 0.00 | 0.00 | 0.00 | 88 | 1019.5 |
| 20260506121542 | 43 | 0 | 0.0 | 0.0 | 0.00 | 0.00 | 0.00 | 89 | 1019.3 |
| 20260506120048 | 43 | 0 | 0.0 | 0.0 | 0.00 | 0.00 | 0.00 | 89 | 1019.0 |
| 20260506114543 | 43 | 0 | 0.0 | 0.0 | 0.00 | 0.01 | 0.00 | 89 | 1019.0 |
| 20260506113050 | 43 | 0 | 0.0 | 0.0 | 0.00 | 0.01 | 0.00 | 88 | 1018.8 |
| 20260506111543 | 43 | 0 | 0.0 | 0.0 | 0.00 | 0.01 | 0.00 | 88 | 1018.6 |
| 20260506110041 | 43 | 0 | 0.0 | 0.0 | 0.00 | 0.01 | 0.00 | 87 | 1018.4 |
| 20260506104554 | 43 | 0 | 0.0 | 0.0 | 0.00 | 0.04 | 0.00 | 84 | 1018.2 |
| 20260506103044 | 45 | 0 | 0.0 | 0.0 | 0.00 | 0.04 | 0.00 | 84 | 1018.2 |
| 20260506101551 | 45 | 0 | 0.0 | 0.0 | 0.00 | 0.04 | 0.00 | 83 | 1017.9 |
| 20260506100045 | 45 | 0 | 0.0 | 0.0 | 0.00 | 0.04 | 0.00 | 83 | 1017.7 |
| 20260506094544 | 46 | 0 | 0.0 | 0.0 | 0.00 | 0.12 | 0.00 | 81 | 1017.6 |
| 20260506093039 | 46 | 0 | 0.0 | 0.0 | 0.00 | 0.12 | 0.00 | 80 | 1017.5 |
| 20260506091539 | 48 | 0 | 0.0 | 0.0 | 0.00 | 0.12 | 0.00 | 78 | 1017.5 |
| 20260506090039 | 49 | 0 | 0.0 | 0.0 | 0.00 | 0.12 | 0.00 | 74 | 1017.2 |
| 20260506084542 | 51 | 0 | 0.0 | 1.0 | 0.00 | 0.17 | 0.00 | 70 | 1017.3 |
| 20260506083042 | 53 | 0 | 1.0 | 9.0 | 0.00 | 0.17 | 0.00 | 66 | 1017.3 |
| 20260506081540 | 54 | 150 | 3.0 | 13.0 | 0.00 | 0.17 | 0.00 | 64 | 1017.2 |
| 20260506073047 | 51 | 0 | 0.0 | 3.0 | 0.00 | 0.20 | 0.00 | 73 | 1017.0 |
| 20260506071544 | 51 | 0 | 0.0 | 3.0 | 0.00 | 0.20 | 0.00 | 74 | 1017.0 |
| 20260506061553 | 52 | 238 | 6.0 | 11.0 | 0.00 | 0.23 | 0.20 | 72 | 1016.6 |
| 20260506044539 | 53 | 0 | 0.0 | 4.0 | 0.00 | 0.30 | 0.20 | 72 | 1015.1 |
| 20260506043046 | 56 | 0 | 2.0 | 6.0 | 0.00 | 0.30 | 0.20 | 65 | 1014.8 |
| 20260506041540 | 58 | 83 | 1.0 | 11.0 | 0.00 | 0.30 | 0.20 | 59 | 1014.5 |
| 20260506040048 | 59 | 150 | 1.0 | 14.0 | 0.00 | 0.30 | 0.20 | 58 | 1014.5 |
| 20260506034545 | 57 | 186 | 3.0 | 5.0 | 0.00 | 0.30 | 0.20 | 64 | 1014.5 |
| 20260506033043 | 58 | 178 | 3.0 | 9.0 | 0.00 | 0.30 | 0.20 | 59 | 1014.3 |
| 20260506031539 | 60 | 235 | 3.0 | 10.0 | 0.00 | 0.30 | 0.20 | 57 | 1013.8 |
| 20260506030046 | 60 | 0 | 1.0 | 6.0 | 0.00 | 0.30 | 0.20 | 54 | 1013.7 |
| 20260506024549 | 59 | 261 | 1.0 | 6.0 | 0.00 | 0.31 | 0.20 | 58 | 1013.6 |
| 20260506023059 | 60 | 0 | 0.0 | 4.0 | 0.00 | 0.31 | 0.20 | 59 | 1013.3 |
| 20260506021553 | 62 | 186 | 3.0 | 5.0 | 0.00 | 0.31 | 0.20 | 56 | 1013.1 |
| 20260506020041 | 63 | 165 | 2.0 | 5.0 | 0.00 | 0.31 | 0.20 | 50 | 1013.1 |
| 20260506014547 | 64 | 183 | 2.0 | 6.0 | 0.00 | 0.32 | 0.20 | 48 | 1013.0 |
| 20260506013043 | 64 | 161 | 3.0 | 7.0 | 0.00 | 0.32 | 0.20 | 48 | 1013.1 |
| 20260506011544 | 64 | 180 | 3.0 | 8.0 | 0.00 | 0.32 | 0.20 | 50 | 1013.1 |
| 20260506010049 | 64 | 177 | 2.0 | 6.0 | 0.00 | 0.32 | 0.20 | 48 | 1013.1 |
| 20260506004548 | 64 | 197 | 3.0 | 7.0 | 0.00 | 0.32 | 0.20 | 48 | 1013.2 |
| 20260506003045 | 64 | 223 | 3.0 | 7.0 | 0.00 | 0.32 | 0.20 | 48 | 1013.1 |
| 20260506001547 | 64 | 165 | 3.0 | 9.0 | 0.00 | 0.32 | 0.20 | 48 | 1013.3 |
| 20260506000041 | 64 | 168 | 2.0 | 8.0 | 0.00 | 0.32 | 0.20 | 50 | 1013.1 |
| 20260505234559 | 64 | 140 | 4.0 | 9.0 | 0.00 | 0.32 | 0.20 | 49 | 1013.1 |
| 20260505233043 | 64 | 155 | 2.0 | 7.0 | 0.00 | 0.32 | 0.20 | 50 | 1013.2 |
| 20260505231544 | 63 | 197 | 2.0 | 6.0 | 0.00 | 0.32 | 0.20 | 52 | 1013.4 |
| 20260505230041 | 63 | 206 | 0.0 | 5.0 | 0.00 | 0.32 | 0.20 | 52 | 1013.6 |
| 20260505224541 | 62 | 248 | 3.0 | 8.0 | 0.00 | 0.32 | 0.20 | 53 | 1013.8 |
| 20260505223041 | 62 | 246 | 2.0 | 9.0 | 0.00 | 0.32 | 0.20 | 54 | 1013.8 |
| 20260505221546 | 62 | 34 | 3.0 | 8.0 | 0.00 | 0.32 | 0.20 | 54 | 1013.9 |
| 20260505220048 | 60 | 144 | 1.0 | 9.0 | 0.00 | 0.32 | 0.20 | 57 | 1014.0 |
| 20260505214603 | 59 | 0 | 2.0 | 8.0 | 0.00 | 0.32 | 0.20 | 61 | 1014.2 |
| 20260505213051 | 58 | 219 | 3.0 | 7.0 | 0.00 | 0.32 | 0.20 | 63 | 1014.3 |